Terug naar catalogus

SL-12 DEB

LostHEO
NORAD 60011·DEBRIS·🇷🇺 Russia

Gelanceerd Mar 1, 2010 vanaf Baikonur Cosmodrome

Loading…

Volgende Passages (komende 24 uur)

TLE

VerouderdSource: Space-Track

Epoch: Sep 18, 2025, 01:49 UTC

1 60011U 10007AU  25261.07571256  .00001348  00000-0  32417-2 0  9990
2 60011  64.0258 289.0681 5706694 353.5136   1.5404  4.27453034111337

Volg SL-12 DEB in realtime met AllMySat

Download on the App Store